Home > Weather > Alta > Past weeks

Flag for Norway Past Weather in Alta, Norway — Yesterday and Last 2 Weeks

Now
57 °F

Refreshingly cool.


Feels Like: 57 °F
Forecast: 55 / 63 °F
Wind: 5 mph from Southeast

Location: Alta Lufthavn

Current Time: Jun 27, 2016 at 6:09:30 AM

Latest Report: Jun 27, 2016 at 5:00 AM


Visibility: N/A

Pressure: 29.98 "Hg

Humidity: 59%

Dew Point: 43 °F

Location of AltaLocation

Past Weather in Alta — Graph

°F

Alta Temperature Yesterday

Maximum temperature yesterday: 58 °F (at 11:00 PM)
Minimum temperature yesterday: 51 °F (at 3:00 AM)
Average temperature yesterday: 54 °F

High & Low Weather Summary for the Past Weeks

 TemperatureHumidityPressure
High65 °F (Jun 21, 5:00 PM)95% (Jun 17, 7:00 PM)30.14 "Hg (Jun 17, 7:00 PM)
Low43 °F (Jun 12, 4:00 AM)46% (Jun 12, 2:00 PM)29.67 "Hg (Jun 18, 4:00 AM)
Average51 °F74%29.89 "Hg
* Reported Jun 12 4:00 AM — Jun 27 4:00 AM, Alta, Weather by CustomWeather, © 2016

Note: Actual official high and low records may vary slightly from our data, if they occured in-between our weather recording intervals... More about our weather records

Advertising

Alta Weather History for the Previous 24 Hours

Scroll right to see more
 ConditionsComfort  
Time TempWeatherWind HumidityBarometerVisibility
4:00 AM
Mon, Jun 27
55 °FCool.6 mph63%30.01 "HgN/A
3:00 AM54 °FCool.5 mph64%30.02 "HgN/A
2:00 AM54 °FCool.5 mph64%30.03 "HgN/A
1:00 AM55 °FCool.2 mph62%30.04 "HgN/A
11:00 PM
Sun, Jun 26
58 °FRefreshingly cool.5 mph54%30.04 "HgN/A
10:00 PM56 °FCool.2 mph71%30.04 "HgN/A
9:00 PM56 °FCool.5 mph74%30.05 "HgN/A
8:00 PM56 °FCool.6 mph71%30.06 "HgN/A
7:00 PM56 °FCool.7 mph67%30.07 "HgN/A
6:00 PM57 °FRefreshingly cool.6 mph59%30.09 "HgN/A
5:00 PM55 °FCool.7 mph62%30.10 "HgN/A
4:00 PM57 °FRefreshingly cool.6 mph59%30.11 "HgN/A
3:00 PM56 °FRefreshingly cool.6 mph59%30.12 "HgN/A
2:00 PM55 °FCool.6 mph62%30.13 "HgN/A
1:00 PM55 °FCool.6 mph62%30.14 "HgN/A
12:00 PM54 °FCool.6 mph64%30.14 "HgN/A
11:00 AM54 °FCool.7 mph64%30.14 "HgN/A
10:00 AM55 °FCool.6 mph63%30.14 "HgN/A
9:00 AM55 °FRefreshingly cool.1 mph59%30.13 "HgN/A
8:00 AM55 °FCool.2 mph59%30.13 "HgN/A
7:00 AM53 °FCool.2 mph66%30.13 "HgN/A
6:00 AM51 °FCool.2 mph70%30.12 "HgN/A
Weather by CustomWeather, © 2016

See weather overviewHow to use our weather pages